Dewpoint
50 38 37 39 34 32 32 31 30 33 36 39 44 42 43 48 47 49 59 60 63 64 66 66 70 68 67 67 68 69 69 68 67 66 65 67 68 68 67 67 68 67 66 65 64 63 63 62 62
38 35 38 34 32 31 30 31 31 33 41 43 46 46 44 50 55 59 59 61 62 64 65 65 69 69 67 68 69 68 68 67 66 65 65 67 68 68 67 66 67 65 65 64 64 63 63 62 62
38 33 33 32 31 30 30 29 32 41 43 42 45 50 49 53 57 59 60 60 61 64 65 66 69 69 68 68 69 68 67 66 66 65 66 68 67 67 67 66 65 64 63 63 64 63 63 62 62
38 34 30 27 30 31 27 30 36 41 41 44 43 45 53 58 58 59 60 61 62 63 65 68 69 68 68 68 69 68 67 66 65 64 64 64 66 66 66 65 65 64 64 64 63 63 62 62 61
36 33 28 29 30 26 24 27 36 39 37 41 44 45 52 58 60 61 60 61 61 60 63 66 69 69 69 69 69 68 67 66 66 65 65 65 66 66 65 64 64 63 63 63 62 62 62 62 61
37 36 29 28 29 24 25 28 35 38 38 43 43 45 53 61 61 61 60 59 59 60 62 66 66 68 69 69 68 67 67 66 66 65 66 65 65 65 64 63 63 63 62 62 62 62 62 61 61
37 32 30 30 29 25 26 32 37 37 38 41 43 38 55 59 62 60 58 59 60 60 61 65 64 65 66 67 67 67 67 66 66 66 67 66 66 66 65 65 63 62 62 62 61 62 62 61 60
35 33 31 29 27 28 32 35 37 36 37 45 44 36 47 59 63 62 61 61 60 59 61 65 64 62 62 64 64 65 66 66 65 65 65 64 64 65 64 63 64 62 62 62 62 61 61 60 60
34 32 30 30 28 27 33 34 34 40 41 43 46 41 50 60 63 62 61 61 61 61 60 66 64 61 60 62 63 63 63 64 63 63 62 62 60 60 62 63 64 63 62 62 61 60 58 59 59
34 33 31 29 27 26 31 33 33 36 39 42 46 51 57 61 62 61 60 59 59 60 61 65 63 61 59 59 61 60 61 61 60 60 60 59 59 60 59 59 60 61 62 61 59 57 58 57 54
35 33 33 27 27 25 27 33 32 34 34 35 40 49 58 60 61 59 59 58 58 59 62 64 64 61 59 58 58 58 57 59 60 60 60 60 60 60 58 58 57 57 57 55 57 56 55 56 56
34 35 32 28 28 26 26 29 31 33 32 36 36 48 56 59 60 58 58 58 58 59 61 64 63 62 58 57 57 56 55 57 58 59 59 58 56 57 56 55 58 59 58 58 58 57 57 56 55
35 33 28 27 28 26 27 26 27 28 32 35 41 51 55 58 59 59 59 58 58 58 59 62 63 61 58 56 55 55 55 55 56 58 58 57 56 57 56 57 57 58 58 57 57 57 56 56 56
35 34 28 28 31 28 28 27 27 27 28 35 45 50 54 57 58 58 58 58 54 57 58 61 62 62 59 55 55 55 55 55 55 57 58 58 57 57 58 59 58 58 58 58 57 57 57 56 57
34 33 31 31 35 36 32 34 26 27 34 35 42 47 52 56 58 58 58 57 52 55 58 60 62 62 60 56 55 55 55 54 56 57 59 59 58 58 58 58 58 59 59 59 58 57 56 55 55
34 33 32 34 33 33 34 36 32 30 30 32 36 41 48 53 56 56 58 58 52 51 56 59 61 62 62 58 57 56 55 55 57 58 59 59 59 57 58 58 58 58 59 58 57 56 54 55 54
36 34 32 33 36 34 34 35 37 30 29 31 31 37 43 49 54 55 57 58 55 49 52 58 61 61 61 61 58 58 57 56 56 58 59 59 59 58 58 58 58 59 58 58 57 55 57 56 54
36 34 34 33 35 37 35 35 37 33 30 30 29 32 40 45 50 54 56 58 56 50 50 54 59 60 61 62 60 59 59 58 57 58 60 60 60 59 59 59 59 59 59 58 58 58 60 59 58
38 36 34 35 34 36 36 36 38 38 38 35 30 29 33 42 46 51 55 57 58 54 50 52 55 56 58 60 59 58 58 58 59 60 61 61 60 60 60 59 58 58 58 59 59 59 59 59 58
40 38 36 36 34 36 36 36 37 38 39 39 35 33 30 34 43 49 54 57 58 57 55 53 54 54 56 57 58 57 57 58 58 61 62 61 60 60 59 60 59 59 59 60 59 59 59 58 57
39 39 36 35 35 35 35 35 36 38 39 40 40 39 34 30 37 45 51 55 58 59 59 57 56 55 55 56 56 57 59 60 59 61 62 62 61 61 61 60 60 61 61 61 61 60 59 58 57
37 40 38 36 37 36 36 34 36 37 37 39 40 40 39 34 32 39 47 53 57 59 60 60 60 58 57 56 56 58 59 59 60 61 62 63 62 61 62 61 61 61 62 61 61 61 60 58 56
39 40 40 39 37 36 35 33 34 34 34 36 35 39 41 37 33 35 43 51 54 59 60 61 61 61 59 58 57 59 60 60 61 61 61 61 62 62 62 62 62 62 62 61 60 59 58 58 56
39 38 37 37 37 33 36 33 32 31 34 35 35 34 39 36 32 34 41 49 53 57 60 61 61 61 61 60 60 59 60 60 61 61 61 62 62 62 62 62 63 62 61 59 58 56 56 55 54
39 38 33 32 32 31 29 34 32 34 35 35 35 35 35 37 35 32 36 45 51 55 58 60 61 60 61 61 61 61 61 61 61 61 61 61 61 61 62 62 60 59 57 55 53 53 53 52 49
38 36 28 23 24 23 30 29 30 34 34 34 35 33 30 33 32 32 33 41 50 53 56 58 58 59 60 61 61 61 61 61 61 61 61 61 60 59 61 60 58 56 53 50 49 48 47 46 43
37 35 34 28 26 27 25 27 28 31 30 29 27 30 34 30 29 31 32 33 43 50 52 56 56 57 58 59 60 61 61 61 61 61 62 61 61 59 59 57 54 51 49 46 44 42 40 42 41
37 36 33 35 30 25 21 25 25 29 28 27 28 28 26 28 33 29 27 30 33 37 45 51 54 55 56 58 59 60 61 61 61 61 61 61 60 57 55 53 50 46 44 42 40 38 38 37 38
36 35 35 33 32 26 23 20 25 23 11 18 20 20 19 20 22 25 28 28 31 34 37 39 46 50 53 55 57 59 60 60 61 61 61 61 59 54 52 50 47 44 40 38 37 36 35 34 33
36 34 33 29 29 29 28 25 17 15 17 20 18 20 23 25 26 28 30 30 31 35 37 38 38 41 47 52 56 58 59 60 60 60 60 59 55 52 51 48 44 40 36 35 33 31 30 30 30
Lifted_Index
8 8 7 5 3 2 3 4 5 5 5 4 4 3 2 1 1 0 -0 -1 -3 -3 -3 -3 -4 -3 -3 -2 -3 -3 -2 -2 -1 -1 -0 -1 -1 -1 -1 0 0 1 2 2 3 4 4 4 5
8 7 6 5 3 2 3 4 5 5 4 4 3 3 2 1 1 0 -0 -1 -2 -3 -3 -3 -3 -3 -3 -3 -3 -2 -2 -1 -1 -0 -0 -1 -1 -1 -0 0 1 2 2 3 3 4 4 4 5
7 7 6 4 3 2 3 4 4 4 4 4 3 2 1 1 0 0 -0 -1 -2 -3 -3 -3 -3 -3 -3 -3 -2 -2 -1 -1 -0 0 0 -0 -1 -0 0 1 2 2 3 3 3 4 4 5 5
7 7 5 4 3 3 4 4 4 4 4 4 3 2 1 1 1 0 0 -0 -1 -2 -2 -2 -2 -3 -3 -3 -2 -1 -1 -0 -0 0 0 0 0 1 1 2 2 3 3 3 3 4 4 5 5
7 6 4 3 3 4 5 5 4 4 4 4 3 2 1 1 1 1 0 0 -0 -1 -1 -1 -2 -2 -2 -2 -2 -1 -0 -0 0 1 1 1 1 1 2 2 3 3 4 4 4 4 4 5 5
6 5 3 3 4 5 5 5 5 4 4 4 4 3 2 1 1 1 1 1 1 0 -0 -1 -1 -1 -2 -2 -1 -1 -0 0 1 1 1 1 1 2 2 3 3 4 4 4 4 4 5 5 5
5 4 3 3 4 5 5 5 5 4 4 4 4 3 2 1 1 1 2 2 1 1 0 -0 -0 -0 -0 -1 -0 0 0 1 1 1 1 1 2 2 3 3 4 4 4 4 5 5 5 5 5
5 4 3 4 4 4 5 5 5 5 5 4 4 4 3 1 1 1 2 2 2 1 1 0 0 1 1 1 1 1 1 2 2 2 2 2 3 3 4 4 4 4 4 4 5 5 5 6 6
4 4 3 4 5 5 5 5 6 5 5 4 4 4 3 1 1 1 2 2 2 2 1 0 1 1 2 2 2 2 3 3 3 3 3 3 3 4 4 5 4 4 4 5 5 6 6 6 6
4 3 3 5 5 6 6 6 6 6 5 5 4 3 2 1 1 2 2 2 3 2 1 0 1 2 3 3 3 4 4 4 4 4 4 4 4 4 5 5 5 5 5 5 5 6 6 6 6
3 3 4 5 6 6 6 6 6 6 6 5 5 3 2 1 2 2 2 2 3 3 2 1 1 2 3 4 4 4 5 4 4 4 4 4 4 5 5 5 5 5 5 5 5 5 5 5 5
3 4 4 5 6 6 6 7 7 6 6 6 5 3 2 2 2 2 2 2 3 3 2 1 1 2 4 4 4 5 5 5 5 4 5 5 5 5 5 5 5 4 4 4 4 4 4 5 5
3 4 5 5 5 6 6 7 7 7 7 6 5 3 2 2 2 2 2 2 3 3 2 2 2 2 3 4 5 5 6 6 5 5 5 5 5 5 5 4 4 4 4 4 4 4 4 4 4
3 4 4 5 5 5 6 6 7 7 7 6 4 3 2 2 1 2 2 2 3 4 3 2 2 2 3 4 5 5 6 6 5 5 5 5 5 4 4 4 4 3 3 4 4 4 4 4 4
4 4 4 4 4 4 5 5 6 7 7 6 5 3 2 2 1 1 2 3 4 5 4 3 2 2 3 4 4 5 5 5 5 4 4 4 4 4 4 3 3 3 3 3 4 4 4 4 4
3 4 4 4 4 4 4 4 5 6 7 6 6 4 3 2 1 1 2 2 4 5 5 4 3 3 3 3 4 4 5 5 4 4 4 4 4 4 4 3 3 3 3 3 4 4 4 4 4
4 4 4 4 4 4 4 3 3 5 6 7 6 5 4 3 2 1 1 2 3 5 5 4 3 3 3 3 3 3 4 4 4 3 3 3 3 4 3 3 3 3 3 4 4 4 4 4 4
4 4 4 4 4 4 3 3 3 4 5 6 7 6 5 3 2 2 1 1 2 4 5 5 4 3 2 2 2 3 3 3 3 3 2 2 3 3 3 3 4 4 4 4 4 4 4 4 4
3 3 3 3 4 4 3 3 3 3 4 5 6 6 6 5 3 2 1 1 1 3 4 4 4 3 3 2 2 2 2 3 3 2 2 2 2 3 3 3 3 4 4 4 4 4 3 4 4
2 2 2 3 4 4 3 3 3 3 4 4 5 6 6 6 4 3 2 1 1 1 2 3 3 3 3 2 2 2 2 2 2 1 1 1 2 3 3 3 3 4 4 4 4 3 3 4 4
2 2 2 3 3 4 3 3 3 3 3 4 4 5 6 6 5 3 2 1 0 0 1 1 2 2 2 2 2 2 2 1 1 1 0 1 1 2 3 3 3 3 3 3 3 3 4 4 5
2 2 2 3 3 4 4 4 3 3 3 3 3 3 5 6 6 5 3 1 1 -0 -0 -0 0 1 1 2 2 1 1 1 0 0 0 1 1 2 2 2 3 3 3 3 3 3 4 4 5
2 2 2 2 3 3 4 4 4 4 3 3 2 3 3 5 6 5 4 2 1 0 -1 -1 -1 -0 0 1 1 1 0 0 -0 -0 0 1 1 1 2 2 2 2 2 2 3 3 4 5 5
3 2 2 2 2 3 4 5 5 5 4 3 2 3 3 4 4 5 4 3 1 0 -0 -1 -1 -1 -0 0 0 0 0 -0 -1 -0 -0 0 1 1 1 1 2 2 2 3 3 4 5 6 6
3 3 2 2 1 2 4 5 5 5 4 3 3 3 3 3 3 4 4 3 2 1 0 -0 -1 -1 -1 -0 -0 -0 -0 -1 -1 -1 -1 0 1 1 1 2 2 2 3 3 3 4 5 6 6
3 3 3 2 1 2 3 4 5 6 5 4 4 4 4 4 3 3 4 4 3 2 1 1 0 -0 -0 -1 -1 -1 -1 -1 -1 -1 -1 -0 0 1 1 2 2 3 3 3 4 4 5 6 6
4 3 3 3 2 2 3 4 5 6 6 5 5 5 5 4 4 4 5 5 5 4 3 3 2 1 1 0 -0 -1 -1 -1 -1 -1 -1 -0 -0 0 0 1 2 3 3 3 4 5 6 7 7
4 4 4 3 2 1 2 3 5 6 6 5 5 5 5 5 5 6 6 7 7 7 6 5 4 3 2 1 0 -0 -0 -1 -1 -1 -1 -0 -0 -0 0 0 1 2 3 4 4 5 6 7 9
4 4 4 3 3 2 2 3 5 6 6 6 6 6 6 6 7 8 8 8 8 8 8 7 6 5 4 3 1 0 0 -0 -0 -0 -0 -0 0 0 -0 -0 0 1 3 4 4 5 6 8 11
4 4 4 3 3 3 3 3 5 7 7 7 7 6 6 7 8 9 9 8 8 9 8 8 7 7 6 4 2 1 0 0 0 0 0 0 0 0 0 -0 -0 1 2 3 4 5 6 9 12